Weather observations for the past three days for
Jamestown, Jamestown Municipal Airport
Imperial (Metric)
Date Time (cdt) Wind (mph) Vis. (mi.) Weather Sky Cond. Temperature (ºF) Relative Humidity Wind Chill (°F) Heat Index (°F) Pressure Precipitation (in)
Air Dwpt 6 hour altimeter (in) sea level (mb) 1 hr 3 hr 6 hr
Max. Min.
22 20:56 W 7 10.00 Partly Cloudy FEW030 SCT035 72 64.9 79% 29.86 1010.9
22 19:56 NW 7 10.00 Fair CLR 75 64.9 71% 77 29.86 1010.5
22 18:56 NW 8 10.00 Fair CLR 75 64.9 77 70 71% 77 29.85 1010.4
22 17:56 W 6 10.00 A Few Clouds FEW100 75 66 74% 76 29.86 1010.5
22 16:56 NW 7 10.00 Overcast OVC046 73.9 64.9 74% 29.87 1011.2
22 15:56 Calm 10.00 Mostly Cloudy FEW030 SCT035 BKN043 75 64 69% 77 29.88 1011.2
22 14:56 Calm 10.00 Overcast SCT020 OVC038 73 64.9 76% 29.89 1011.6
22 13:56 Calm 10.00 Mostly Cloudy SCT011 BKN020 BKN028 71.1 64.9 81% 29.88 1011.5
22 12:56 E 5 10.00 Overcast OVC007 70 66.9 70 64 90% 29.89 1011.7 0.02 0.33
22 11:56 Calm 3.00 Rain Fog/Mist SCT008 OVC034 64.9 64 97% 29.9 1012.4 0.18
22 10:56 E 6 4.00 Light Rain Fog/Mist OVC005 64.9 64 97% 29.91 1012.4 0.1
22 09:56 E 5 2.00 Rain Fog/Mist OVC004 64 63 96% 29.91 1012.5 0.03 0.03
22 08:56 E 8 5.00 Fog/Mist OVC003 64 63 96% 29.91 1012.5
22 07:56 E 8 10.00 Overcast OVC005 64 63 96% 29.92 1012.9
22 06:56 E 9 10.00 Overcast OVC004 64 63 64.9 64 96% 29.92 1013.1 0.01
22 05:56 E 7 9.00 Overcast OVC003 64 63 96% 29.92 1013.0
22 04:56 E 6 10.00 Overcast SCT004 OVC010 64 63 96% 29.93 1013.3
22 03:56 E 6 8.00 Overcast OVC004 64 63 96% 29.94 1013.6 0.01 0.01
22 02:56 E 8 10.00 Overcast SCT006 BKN011 OVC033 64 63 96% 29.95 1014.0
22 01:56 E 8 10.00 Overcast BKN005 OVC013 64 64 100% 29.97 1014.4
22 00:56 E 8 10.00 Overcast OVC006 64 64 64.9 64 100% 29.98 1014.8 0.15
21 23:56 E 7 9.00 Overcast OVC005 64 64 100% 30 1015.4 0.1
21 22:56 E 8 6.00 Light Rain Fog/Mist OVC005 64.9 64 97% 30.01 1015.8 0.04
21 21:56 E 7 10.00 Overcast OVC005 64.9 64 97% 30 1015.7 0.01
21 20:56 E 8 10.00 Light Rain OVC010 64.9 63 93% 30 1015.6
21 19:56 E 10 10.00 Overcast OVC007 64.9 64 97% 30.01 1016.3 0.01
21 18:56 E 12 10.00 Overcast OVC005 64 63 72 64 96% 30.05 1017.4 0.06 0.52
21 17:56 E 7 1.75 Rain Fog/Mist SCT003 BKN012 OVC037 64.9 64.9 100% 30.07 1018.4 0.33
21 16:56 NE 6 4.00 Rain Fog/Mist OVC007 64.9 64 97% 30.08 1018.6 0.13
21 15:56 SE 9 4.00 Light Rain Fog/Mist BKN021 OVC038 64.9 62.1 90% 30.08 1018.7
21 14:56 SE 12 10.00 Overcast BKN034 OVC048 70 59 68% 30.1 1019.1
21 13:56 SE 12 10.00 Overcast OVC033 71.1 57.9 63% 30.12 1019.9
21 12:56 SE 14 G 22 10.00 Overcast OVC036 71.1 57 73 57.9 61% 30.12 1019.7
21 11:56 E 15 10.00 Overcast OVC032 71.1 57.9 63% 30.14 1020.5
21 10:56 E 13 10.00 Fair CLR 70 57 64% 30.16 1021.0
21 09:56 E 10 10.00 Fair CLR 68 59 73% 30.17 1021.5
21 08:56 E 9 10.00 Fair CLR 66 59 78% 30.19 1021.9
21 07:56 E 8 10.00 Fair CLR 62.1 57.9 86% 30.19 1022.2
21 06:56 NE 7 10.00 Fair CLR 57.9 55.9 59 55.9 93% 30.19 1022.4
21 05:56 E 7 10.00 Fair CLR 57.9 55 90% 30.19 1022.2
21 04:56 E 7 10.00 Fair CLR 57 55 93% 30.2 1022.6
21 03:56 E 5 10.00 Fair CLR 55.9 55 97% 30.21 1022.8
21 02:56 E 6 10.00 Fair CLR 55.9 55 97% 30.22 1023.3
21 01:56 E 6 10.00 Fair CLR 57 55 93% 30.23 1023.6
21 00:56 E 6 10.00 Fair CLR 57.9 55.9 70 57.9 93% 30.23 1023.7
20 23:56 E 5 10.00 Fair CLR 59 55.9 90% 30.24 1024.0
20 22:56 SE 6 10.00 Fair CLR 60.1 55.9 86% 30.24 1024.0
20 21:56 E 3 10.00 Fair CLR 62.1 57 84% 30.23 1023.7
20 20:56 SE 7 10.00 Fair CLR 64.9 55.9 73% 30.22 1023.3
20 19:56 SE 8 10.00 Fair CLR 66.9 55.9 68% 30.23 1023.7
20 18:56 S 7 10.00 A Few Clouds FEW033 69.1 57 73.9 69.1 66% 30.24 1024.1
20 17:56 SE 7 10.00 Fair CLR 72 57 59% 30.25 1024.5
20 16:56 S 14 10.00 Fair CLR 69.1 55.9 63% 30.27 1025.1
20 15:56 S 14 10.00 Overcast OVC050 70 55.9 61% 30.28 1025.4
20 14:56 SE 12 10.00 Mostly Cloudy SCT041 BKN048 70 55 59% 30.27 1024.9
20 13:56 S 14 G 21 10.00 Overcast SCT037 OVC046 70 55 59% 30.29 1025.8
20 12:56 S 13 G 20 10.00 A Few Clouds FEW036 72 55 72 57 55% 30.3 1026.0
20 11:56 S 10 G 21 10.00 Fair CLR 70 54 57% 30.31 1026.6
20 10:56 S 16 G 24 10.00 A Few Clouds FEW075 68 54 61% 30.32 1026.8
20 09:56 S 14 10.00 A Few Clouds FEW080 64.9 54 68% 30.32 1026.8
20 08:56 S 9 10.00 Overcast OVC085 63 55.9 78% 30.32 1026.7
20 07:56 S 7 10.00 Overcast OVC085 60.1 55.9 86% 30.31 1026.6
20 06:56 Calm 10.00 Fair CLR 57 54 57 54 90% 30.31 1026.3
20 05:56 S 6 10.00 Mostly Cloudy BKN035 55 53.1 93% 30.31 1026.4
20 04:56 S 7 10.00 Fair CLR 55 52 90% 30.31 1026.4
20 03:56 SE 8 10.00 Fair CLR 55 51.1 87% 30.31 1026.3
20 02:56 SE 6 10.00 Fair CLR 55.9 51.1 84% 30.3 1026.2
20 01:56 SE 6 10.00 Fair CLR 55.9 51.1 84% 30.31 1026.5
20 00:56 SE 7 10.00 Fair CLR 55 50 64.9 53.1 83% 30.32 1026.7
19 23:56 E 5 10.00 Fair CLR 55 51.1 87% 30.31 1026.7
19 22:56 SE 7 10.00 Fair CLR 57.9 50 75% 30.31 1026.6
19 21:56 SE 5 7.00 Fair CLR 59 50 72% 30.3 1026.2
Date Time (cdt) Wind (mph) Vis. (mi.) Weather Sky Cond. Air Dwpt Max. Min. Relative Humidity Wind Chill (°F) Heat Index (°F) altimeter (in) sea level (mb) 1 hr 3 hr 6 hr
6 hour
Temperature (ºF) Pressure Precipitation (in)